Regional Weather Roundup
Issued by NWS

Home | Current Version | Previous Version | Text Only | Print | Product List | Glossary Off
Versions: 1 2 3 4 5 6 7 8 9 10 11 12 13 14 15 16 17 18 19 20 21 22 23 24 25 26 27 28 29 30 31 32 33 34 35 36 37 38 39 40 41 42 43 44 45 46 47 48 49 50

000
ASUS45 KCYS 062210
RWRWY

WYOMING REGIONAL WEATHER ROUNDUP
NATIONAL WEATHER SERVICE CHEYENNE WY
400 PM MDT WED MAY 06 2015

NOTE:  "FAIR" INDICATES FEW OR NO CLOUDS BELOW 12,000 FEET
WITH NO SIGNIFICANT WEATHER AND/OR OBSTRUCTIONS TO VISIBILITY.

WYZ001-062300-
YELLOWSTONE NATIONAL PARK

CITY           SKY/WX    TMP DP  RH WIND       PRES   REMARKS
LK YELLOWSTONE   N/A     49  29  46 CALM      29.82F
W YELLOWSTONE  NOT AVBL

$$
WYZ002>013-054>058-071-098>099-062300-
NORTHERN WYOMING

CITY           SKY/WX    TMP DP  RH WIND       PRES   REMARKS
JACKSON        LGT RAIN  54  34  47 W13G20    29.75S
CODY           CLOUDY    48  36  61 N17       29.85F
GREYBULL       CLOUDY    53  34  48 NW26G33   29.77S
WORLAND        LGT RAIN  49  41  74 NW13      29.80S
SHERIDAN       LGT RAIN  45  38  76 NW20      29.87S
BUFFALO        CLOUDY    45  36  70 N38G48    29.82R
GILLETTE       CLOUDY    45  43  93 NW21G31   29.78R FOG
HULETT         LGT RAIN  46  45  93 N7        29.77R
NEWCASTLE      RAIN      52  50  93 N22G35    29.68S

$$
WYZ014>020-022>026-101>103-062300-
CENTRAL WYOMING

CITY           SKY/WX    TMP DP  RH WIND       PRES   REMARKS
BIG PINEY      PTSUNNY   61  23  23 NW8       29.74F
PINEDALE       CLOUDY    57  25  28 CALM      29.75S
DUBOIS         FAIR      50  37  62 SE18G25   29.78F
LANDER         LGT RAIN  49  46  90 NE12      29.79R
RIVERTON       PTSUNNY   51  42  71 NE18      29.80R
CASPER         LGT RAIN  47  40  76 N16G26    29.79R
DOUGLAS        CLOUDY    51  46  83 N23G31    29.73S

$$
WYZ021-027>030-104>119-062300-
SOUTHERN WYOMING

CITY           SKY/WX    TMP DP  RH WIND       PRES   REMARKS
EVANSTON       LGT RAIN  53  39  59 N15       29.78S
KEMMERER       CLOUDY    55  27  33 E3        29.77S
FORT BRIDGER   CLOUDY    59  28  31 CALM      29.78F
ROCK SPRINGS   PTSUNNY   57  37  47 NE9       29.77F
DIXON          CLOUDY    49  45  84 SE6       29.83R
RAWLINS        LGT RAIN  46  44  93 N16       29.80S
SARATOGA       CLOUDY    46  45  93 N9        29.80S
LARAMIE        TSTM      44  40  85 NW3       29.77R FOG
CHEYENNE       CLOUDY    54  46  74 N15G21    29.71R
TORRINGTON     FAIR      59  51  75 NW17      29.63S
PINE BLUFFS    FAIR      61  46  59 N13G20    29.66S

$$



USA.gov is the U.S. government's official web portal to all federal, state and local government web resources and services.